Tracking 25963 objects as of 12-Aug-2022
HD Live streaming from Space Station
objects crossing your sky now

STARLINK-4006

Track STARLINK-4006 now!
10-day predictions
STARLINK-4006 is classified as:


NORAD ID: 52676
Int'l Code: 2022-053W
Perigee: 545.4 km
Apogee: 548.3 km
Inclination: 53.2 °
Period: 95.4 minutes
Semi major axis: 6917 km
RCS: Unknown
Launch date: May 18, 2022
Source: United States (US)
Launch site: AIR FORCE EASTERN TEST RANGE (AFETR)
aabbcc
Your satellite tracking list
Your tracking list is empty




NASA's NSSDC Master Catalog

Two Line Element Set (TLE):
1 52676U 22053W   22224.58334491  .00028290  00000-0  17885-2 0  9999
2 52676  53.2167 252.9617 0002098  34.3108 355.9179 15.08838407  1309
Source of the keplerian elements: AFSPC